SPOT 5 - Orbit

View from above orbital plane
View from above orbital plane
View from above satellite
View from above satellite

Ground track
Ground track

The orbit data is extracted from the following two-line orbital elements,

1 27421U 02021A   13139.21051851  .00000048  00000-0  42514-4 0  4628
2 27421 098.6105 208.7028 0001068 107.3596 331.6560 14.20074138572402
Epoch (UTC): 19 May 2013 05:03:08
Eccentricity: 0.0001068
inclination: 98.6105°
perigee height: 824 km
apogee height: 826 km
right ascension of ascending node: 208.7028°
argument of perigee: 107.3596°
revolutions per day: 14.20074138
mean anomaly at epoch: 331.6560°
orbit number at epoch: 57240

The dashed part of the orbit path shows where the satellite is in the earth's shadow,  

Developed and maintained by Chris Peat, Heavens-Above GmbH. Please read the updated FAQ before sending e-mail. Imprint. DLR